Vorticity
nan nan nan nan nan nan nan nan nan nan nan nan nan nan nan nan nan nan nan nan nan nan nan nan nan nan nan nan nan nan nan nan nan nan nan nan nan nan nan nan nan nan nan nan nan nan nan nan nan
nan 3 5 8 8 6 6 8 7 -1 1 11 9 6 6 6 6 7 10 13 11 7 6 8 7 5 5 6 6 7 5 4 5 5 5 4 3 3 3 5 6 6 6 6 5 6 5 5 nan
nan 6 8 5 4 5 6 7 3 1 10 11 8 6 6 9 6 6 12 14 9 6 5 7 7 6 6 5 5 5 5 4 4 5 5 5 4 5 4 5 5 6 6 5 6 6 6 5 nan
nan 7 7 6 5 5 4 4 4 5 10 6 6 7 7 8 7 12 14 10 7 6 5 8 8 6 5 4 3 5 6 5 5 5 6 6 5 5 5 6 6 6 6 6 6 6 6 5 nan
nan 8 5 5 7 7 7 2 4 7 8 4 7 9 8 7 10 13 10 9 7 5 7 8 8 6 4 5 5 6 6 5 6 7 7 7 7 6 5 5 6 7 7 6 6 5 5 5 nan
nan 7 6 5 4 5 8 9 7 9 3 7 11 7 9 7 10 9 8 8 9 6 7 7 7 6 6 7 7 6 6 6 6 8 8 8 6 6 6 6 6 6 6 6 6 6 6 6 nan
nan 6 7 7 7 5 11 12 5 5 2 10 10 6 9 11 10 10 8 8 9 7 5 8 8 4 4 7 8 6 7 7 6 8 7 7 6 7 7 6 6 6 5 6 6 6 7 7 nan
nan 7 7 6 8 10 9 3 7 4 4 12 7 6 6 16 12 6 8 8 6 6 6 7 9 6 5 6 5 7 8 8 8 7 7 7 5 5 6 6 6 5 6 6 6 5 6 6 nan
nan 7 5 8 7 6 5 5 3 5 7 1 -0 5 11 14 7 3 5 6 4 5 7 7 8 7 7 7 5 7 6 4 5 5 6 3 5 6 4 6 8 6 6 7 6 6 6 3 nan
nan 6 8 7 3 3 4 1 3 4 5 3 3 7 10 8 3 1 3 6 5 6 5 6 7 8 6 6 7 4 4 4 6 8 4 5 7 6 6 6 4 4 4 2 3 3 2 2 nan
nan 4 7 7 6 5 2 6 7 5 6 8 9 8 8 4 6 5 2 4 7 5 7 7 6 9 4 3 5 6 7 8 10 9 5 6 6 7 5 4 3 4 2 3 4 1 3 7 nan
nan 8 4 5 6 5 5 7 6 5 2 3 8 10 9 7 5 5 6 5 5 6 6 6 7 6 4 4 6 7 7 8 8 8 7 5 7 7 6 7 7 5 5 7 5 6 8 7 nan
nan 6 5 2 -0 4 7 2 7 5 7 8 13 11 5 6 4 7 9 9 6 5 6 6 6 5 7 4 6 7 7 9 9 8 6 5 6 7 7 7 7 7 8 6 7 7 7 6 nan
nan 6 5 5 9 11 12 11 14 10 10 11 15 11 10 9 7 6 9 9 8 6 6 6 6 6 5 6 6 5 8 10 8 7 8 7 5 7 7 7 7 7 8 8 8 8 7 7 nan
nan 4 12 17 17 13 18 17 11 4 12 12 12 15 15 10 10 11 8 7 6 5 8 8 8 7 5 6 5 6 7 9 9 9 9 6 6 7 6 6 7 7 8 8 7 7 8 7 nan
nan 10 11 13 12 9 5 -1 15 22 12 7 7 7 6 12 12 7 7 7 9 9 7 5 8 9 6 6 5 7 8 8 10 8 9 8 7 7 6 6 8 8 7 6 6 7 6 7 nan
nan 10 8 3 7 10 -1 1 6 1 -3 2 2 3 8 12 11 12 11 11 9 9 8 6 8 8 6 5 7 8 7 6 9 9 9 10 8 6 5 7 9 8 6 7 7 8 8 8 nan
nan 8 3 4 5 2 0 7 -1 -4 -0 6 9 11 10 8 10 12 13 12 11 11 10 6 7 9 6 4 6 7 7 7 8 10 12 9 7 8 6 7 8 5 7 8 9 8 9 9 nan
nan 4 5 5 1 6 9 6 4 10 9 10 10 9 8 9 12 14 13 14 12 12 11 9 6 5 4 5 5 7 8 6 8 10 11 9 9 8 5 7 7 7 8 9 8 8 6 6 nan
nan 4 7 7 10 6 2 7 14 19 12 13 12 11 11 11 11 13 14 14 14 10 8 8 8 7 3 3 6 9 10 8 9 8 10 10 11 8 7 7 7 7 8 9 8 4 0 6 nan
nan 9 6 4 8 9 13 14 9 12 10 18 11 14 13 11 12 16 17 14 12 10 10 8 9 7 6 5 4 7 7 8 9 9 9 10 10 10 9 6 7 7 9 7 8 6 6 7 nan
nan 17 8 7 8 10 5 9 6 3 8 14 19 9 9 12 15 15 16 18 15 10 9 10 10 9 9 8 7 7 3 3 7 10 10 11 10 10 10 7 7 8 8 9 7 7 8 9 nan
nan 12 13 12 7 8 3 7 3 2 11 6 11 2 7 13 13 12 14 17 17 16 13 12 8 9 11 8 5 5 5 6 11 13 10 6 8 10 10 9 6 7 10 12 10 10 8 8 nan
nan 7 11 14 15 7 17 9 3 5 5 10 4 9 6 9 10 11 13 13 18 21 15 13 11 8 9 9 9 7 6 6 7 9 6 7 7 9 10 9 9 9 9 8 9 11 10 10 nan
nan 8 10 13 7 -0 11 15 8 14 11 11 10 6 9 10 9 9 9 11 14 19 18 13 11 8 10 9 8 9 8 8 7 4 6 6 5 9 10 8 9 11 9 10 9 9 9 11 nan
nan 13 7 4 -1 5 10 9 1 8 13 7 6 7 9 8 9 7 10 11 11 14 22 19 9 10 10 9 10 9 8 6 10 9 8 7 10 11 11 9 10 11 9 8 7 8 9 10 nan
nan 6 8 17 14 14 16 12 3 -7 2 -0 5 9 8 8 8 8 8 10 11 14 25 25 13 11 12 11 11 9 11 10 11 12 9 10 11 11 11 9 8 11 11 8 7 7 9 8 nan
nan 7 11 13 16 14 12 16 10 -0 2 2 5 6 7 6 7 9 7 9 12 10 22 27 20 15 15 12 11 13 10 9 11 13 13 11 9 10 7 7 11 10 9 6 8 9 9 8 nan
nan 13 10 10 10 7 7 11 15 5 -5 1 7 6 5 7 9 8 9 9 11 12 18 22 19 17 14 12 10 11 12 12 11 10 11 10 9 8 6 8 9 8 9 8 7 9 7 8 nan
nan nan nan nan nan nan nan nan nan nan nan nan nan nan nan nan nan nan nan nan nan nan nan nan nan nan nan nan nan nan nan nan nan nan nan nan nan nan nan nan nan nan nan nan nan nan nan nan nan
CAPE
0 0 0 0 0 0 0 0 0 0 0 0 408 40 177 60 626 151 714 602 463 492 771 1173 931 1414 1775 1871 1869 1883 1963 2015 1967 1905 1810 1821 1944 1988 1918 1758 1657 1450 1132 1020 801 625 393 45 0
0 0 0 0 0 0 0 0 0 0 0 0 706 936 696 576 1155 1004 877 584 514 600 842 938 869 1440 1739 1793 1795 1804 1471 1796 1896 1803 1501 1263 1476 1542 1367 1275 1186 870 730 416 205 31 0 0 0
0 0 0 0 0 0 0 0 0 0 0 0 2 811 870 829 1162 975 837 680 639 662 846 1013 1052 1426 1539 1746 1738 1332 1298 1124 1512 1182 1112 1134 1074 924 743 645 519 357 146 9 0 0 0 0 0
0 0 0 0 0 0 0 0 0 0 0 0 8 38 697 739 1025 1025 768 669 697 651 851 1081 847 982 1216 1488 1375 1310 1323 1028 1036 916 1102 932 780 619 403 250 92 2 0 0 0 0 0 0 0
0 0 0 0 0 0 0 0 0 0 0 0 67 7 419 710 875 1022 640 530 681 572 879 1384 759 885 1311 1418 1399 1348 1048 870 853 987 1010 829 510 289 97 0 0 0 0 0 0 0 0 0 0
0 0 0 0 0 0 0 0 0 0 0 0 96 408 609 622 977 928 774 553 570 460 724 1072 1067 1040 1106 1387 1264 941 830 714 810 858 810 468 162 6 0 0 0 0 0 0 0 0 0 0 0
0 0 0 0 0 0 0 0 0 0 0 0 96 45 273 597 731 859 632 551 656 383 494 912 1487 1320 917 1016 777 573 580 578 571 464 364 138 7 0 0 0 0 0 0 0 0 0 0 0 0
0 0 0 0 0 0 0 0 0 0 0 13 388 0 1 467 803 314 329 446 540 505 570 734 1322 1431 1170 1083 484 337 404 340 255 151 60 4 0 0 0 0 0 0 0 0 0 0 0 0 0
0 0 0 0 0 0 0 0 0 0 0 17 287 229 158 706 450 235 138 188 287 441 518 751 883 1144 1035 1189 797 401 306 152 55 5 3 0 0 0 0 0 0 0 0 0 0 0 0 0 0
0 0 0 0 0 0 0 0 0 0 0 0 0 92 359 358 145 263 448 112 243 378 432 575 651 618 590 617 591 292 171 10 0 4 0 0 0 0 0 0 0 0 0 0 0 0 0 0 0
0 0 0 0 0 0 0 0 0 0 0 0 0 0 320 259 502 488 590 422 194 274 358 299 53 174 664 148 15 16 1 0 0 0 0 0 0 0 0 0 0 0 0 0 0 0 0 0 0
0 0 0 0 0 0 0 0 0 0 0 0 0 0 132 269 365 480 652 765 529 223 207 50 1 198 276 0 0 0 0 0 0 0 0 0 0 0 0 0 0 0 0 0 0 0 0 0 0
0 0 0 0 0 0 0 0 0 0 0 0 0 0 0 22 104 274 601 693 754 339 145 1 1 18 2 0 0 0 0 0 0 0 0 0 0 0 0 0 0 0 0 0 0 0 0 0 0
0 0 0 0 0 0 0 0 0 0 0 0 0 0 0 0 1 105 491 705 789 572 215 5 1 1 0 0 0 0 0 0 0 0 0 0 0 0 0 0 0 0 0 0 0 0 0 0 0
0 0 0 0 0 0 0 0 0 0 0 0 0 0 0 0 0 185 402 818 937 706 301 2 0 3 0 0 0 0 0 0 0 0 0 0 0 0 0 0 0 0 0 0 0 0 0 0 0
0 0 0 0 0 0 0 0 0 0 0 0 0 0 0 0 59 250 456 597 666 692 326 0 0 0 0 0 0 0 0 0 0 0 0 0 0 0 0 0 0 0 0 0 0 0 0 0 0
0 0 0 0 0 0 0 0 0 0 0 0 0 0 0 0 0 30 285 486 554 601 488 6 0 0 1 0 0 0 0 0 0 0 0 0 0 0 0 0 0 0 0 0 0 0 0 0 0
0 0 0 0 0 0 0 0 0 0 0 0 0 0 0 0 0 0 15 209 367 524 686 234 0 0 0 0 0 0 0 0 0 0 0 0 0 0 0 0 0 0 0 0 0 0 0 0 0
0 0 0 0 0 0 0 0 0 0 0 0 0 0 0 0 0 0 0 105 385 526 459 226 1 0 0 0 0 0 0 0 0 0 0 0 0 0 0 0 0 0 0 0 0 0 0 0 0
0 0 0 0 0 0 0 0 0 0 0 0 0 0 0 0 0 0 0 0 313 599 596 321 5 1 0 0 0 0 0 0 0 0 0 0 0 0 0 0 0 0 0 0 0 0 0 0 0
0 2 0 0 0 0 0 0 0 0 0 0 0 0 0 0 0 0 0 0 148 440 721 600 36 1 1 0 0 0 0 0 0 0 0 0 0 0 0 0 0 0 0 0 0 0 0 0 0
0 0 0 0 15 0 0 0 0 0 0 0 0 0 0 0 0 0 0 0 112 306 585 702 137 0 0 0 0 0 0 0 0 0 0 0 0 0 0 0 0 0 0 0 0 0 0 0 0
0 0 0 0 5 17 0 16 0 0 0 0 0 0 0 0 0 0 0 0 0 79 320 541 337 0 0 0 0 0 0 0 0 0 0 0 0 0 0 0 0 0 0 0 0 0 0 0 0
0 0 0 0 0 3 0 1 0 0 0 0 0 0 0 0 0 0 0 0 0 1 169 330 343 12 0 0 0 0 0 0 0 0 0 0 0 0 0 0 0 0 0 0 0 0 0 0 0
0 0 0 0 0 0 0 0 0 0 0 0 0 0 0 0 0 0 0 0 0 0 97 227 222 16 0 0 0 0 0 0 0 0 0 0 0 0 0 0 0 0 0 0 0 0 0 0 0
0 0 4 0 0 0 0 0 0 0 0 0 0 0 0 0 0 0 0 0 0 0 0 132 226 130 1 0 0 0 0 0 0 0 0 0 0 0 0 0 0 0 0 0 0 0 0 0 0
0 2 0 53 27 61 0 0 0 0 0 0 0 0 0 0 0 0 0 0 0 0 0 163 495 208 1 0 0 0 0 0 0 0 0 0 0 0 0 0 0 0 0 0 0 0 0 0 0
0 0 2 36 53 26 12 0 5 0 0 0 0 0 0 0 0 0 0 0 0 0 26 214 462 181 0 0 0 0 0 0 0 0 0 0 0 0 0 0 0 0 0 0 0 0 0 0 0
0 0 0 0 3 28 9 0 0 0 3 0 0 0 0 0 0 0 4 2 0 0 0 0 0 0 0 0 0 1 0 0 1 0 3 8 0 0 0 0 0 0 0 0 0 0 0 0 0
0 0 0 1 0 0 17 17 23 0 4 0 0 0 0 0 0 0 3 0 0 0 0 0 0 0 0 0 0 0 0 0 0 0 1 0 5 0 0 0 0 0 0 0 0 0 0 0 0